Location: Deuil
(48.9767°N, 2.3272°E)
Time: 18:35:06
(UTC+00:00)

Meteor 2-10 Rocket - Pass Details

Date: 24 October 2021
Orbit: 733 x 885 km, 81.2° (Epoch: 07 December)

Event Time Altitude Azimuth Distance (km) Brightness Sun altitude
Rises 17:28:51 0° 156° (SSE) 3,395 6.7 -8.1°
Reaches altitude 10° 17:31:37 10° 145° (SE) 2,441 5.8 -8.5°
Maximum altitude 17:36:10 27° 89° (E) 1,518 4.5 -9.2°
Drops below altitude 10° 17:40:36 10° 33° (NNE) 2,371 5.7 -10.0°
Sets 17:43:14 0° 22° (NNE) 3,279 6.5 -10.4°
